Location: Aldenham
(51.6667°N, 0.3500°W)
Time: 16:22:11
(UTC+00:00)

Cosmos 2034 Rocket - Pass Details

Date: 18 November 2025
Orbit: 958 x 998 km, 82.9° (Epoch: 09 December)

Event Time Altitude Azimuth Distance (km) Brightness Sun altitude
Rises 17:56:11 0° 165° (SSE) 3,643 7.0 -16.6°
Reaches altitude 10° 17:58:46 10° 160° (SSE) 2,705 6.2 -16.9°
Maximum altitude 18:04:36 45° 89° (E) 1,310 4.2 -17.8°
Drops below altitude 10° 18:10:31 10° 20° (NNE) 2,750 6.1 -18.7°
Sets 18:13:09 0° 14° (NNE) 3,708 6.8 -19.2°
